www.pogodaiklimat.ru

Архив погоды в Ровно (Ровенская область, Украина)

Время
(UTC), дата
12 14.04
15 14.04
18 14.04
21 14.04
00 15.04
03 15.04
06 15.04
09 15.04
12 15.04
15 15.04
18 15.04
21 15.04
00 16.04
03 16.04
06 16.04
09 16.04
12 16.04
15 16.04
18 16.04
21 16.04
00 17.04
03 17.04
06 17.04
09 17.04
12 17.04
15 17.04
18 17.04
21 17.04
00 18.04
03 18.04
06 18.04
09 18.04
12 18.04
15 18.04
18 18.04
21 18.04
00 19.04
03 19.04
06 19.04
09 19.04
12 19.04
15 19.04
18 19.04
21 19.04
00 20.04
03 20.04
06 20.04
09 20.04
12 20.04
15 20.04
18 20.04
21 20.04
00 21.04
03 21.04
06 21.04
Ветер
(напр.,м/с)
Видим. Явления Облачность Т
(С)
Тd
(С)
f
(%)
Тe
(С)
Тes
(С)
Комфортность P
(гПа)
Po
(гПа)
Тmin
(С)
Tmax
(С)
R
(мм)
R24
(мм)
S
(см)
З 11 10 км 10/0
[Ac trans Ci fib]
+22.6 +6.0 34 +23 +23 комфорт 1011.7 985.2
З 9 10 км 10/1 600 м
[Sc Ac trans Ci fib]
+22.4 +7.8 39 +23 +24 комфорт 1009.5 983.1
З 3 10 км {гроза, ливн. дождь} 8/6 600 м
[Cb calv Ac trans]
+13.9 +12.8 93 +13 +13 тепло 1011.9 984.7 +23.3 2
З 3 10 км 6/0
[Ci fib]
+13.1 +12.5 96 +12 +12 тепло 1013.6 986.2
З 2 10 км 3/0
[Ci fib]
+9.0 +6.4 84 +7 +7 тепло 1014.0 986.2
СЗ 1 10 км 3/0
[Ac trans]
+5.5 +4.0 90 +4 +4 по сезону 1013.8 985.6
ЮЗ 2 10 км 9/5 600 м
[Sc Ac trans]
+10.4 +7.3 81 +9 +10 тепло 1011.7 984.1 +5.3
З 4 4400 м слаб. ливневой дождь 10/8 600 м
[Cb calv Ac und]
+10.5 +6.1 74 +8 +9 по сезону 1012.3 984.7
СЗ 2 10 км {ливн. дождь} 10/10 600 м
[Sc]
+9.6 +4.2 69 +8 +8 по сезону 1010.4 982.7
штиль 0 10 км 10/8 600 м
[Sc Ac und]
+9.8 +3.8 66 +9 +10 по сезону 1008.5 980.9
ЮЗ 2 10 км 10/8 600 м
[Cb calv Ac und]
+8.6 +5.2 79 +7 +7 по сезону 1007.4 979.7 +11.4 3
В 2 10 км слаб. ливневой дождь 10/10 600 м
[Cb calv]
+8.2 +7.3 94 +6 +6 по сезону 1005.0 977.4
ЮВ 3 8000 м слаб. ливневой дождь 10/10 600 м
[Cb calv]
+7.8 +7.2 96 +5 +5 по сезону 1003.1 975.5
ЮВ 3 9000 м дымка {ливн. дождь} 9/9 600 м
[Cb calv]
+8.9 +8.8 99 +6 +6 тепло 1000.6 973.2
ЮЗ 6 10 км {ливн. дождь} 9/4 600 м
[Cb calv Ac trans]
+12.4 +10.8 90 +10 +10 тепло 1000.3 973.2 +7.8 0.4
З 9 10 км 10/6 600 м
[Cb calv Ac trans]
+14.7 +9.7 72 +12 +13 тепло 1000.5 973.6
З 8 10 км 10/5 600 м
[Sc Ac und]
+15.5 +6.8 56 +14 +14 тепло 1000.4 973.6
З 7 10 км {ливн. дождь} 10/6 600 м
[Cb calv Ac und]
+12.1 +5.9 66 +9 +9 по сезону 1001.4 974.2
З 4 10 км в посл. час ливневой дождь 10/6 600 м
[Cb calv Ac und]
+9.2 +1.6 59 +7 +7 по сезону 1002.9 975.4 +15.6 0.0
З 2 10 км слаб. ливневой дождь 10/8 600 м
[Cb calv Ac und]
+7.6 +2.7 71 +6 +6 по сезону 1003.2 975.5
З 2 10 км {ливн. дождь} 10/5 600 м
[Cb calv Ac und]
+6.7 +3.1 78 +5 +5 тепло 1003.0 975.2
СЗ 1 10 км 10/5 600 м
[Sc Ac und]
+5.8 +3.0 82 +5 +5 тепло 1002.1 974.3
С 2 10 км 9/0
[Ac trans Ci fib]
+6.9 +2.8 75 +5 +8 по сезону 1003.0 975.3 +3.9 0.0
СЗ 1 10 км 9/4 600 м
[Cu med, cong Ac trans Ci fib]
+10.1 +0.7 52 +10 +15 тепло 1002.8 975.4
СЗ 2 10 км 9/5 1000 м
[Cu Sc Ac trans]
+11.7 -1.8 39 +11 +14 тепло 1002.3 975.0
С 1 10 км 10/4 1000 м
[Sc Ac und]
+11.6 -2.2 38 +12 +13 тепло 1002.2 974.9
штиль 0 10 км 10/3 1000 м
[Sc Ac und]
+9.4 +2.3 61 +9 +9 тепло 1003.2 975.7 +12.0
штиль 0 10 км 10/0
[Ac und]
+8.0 +3.3 72 +7 +7 тепло 1003.8 976.1
штиль 0 10 км 10/4 600 м
[Sc Ac und]
+7.3 +3.5 77 +7 +7 тепло 1003.6 975.9
С 2 10 км 10/6 600 м
[Cb calv Ac und]
+6.3 +3.3 81 +4 +4 по сезону 1003.6 975.8
З 3 10 км слаб. ливневой дождь 10/10 300 м
[Cb calv]
+7.3 +3.9 79 +4 +4 по сезону 1004.0 976.3 +6.1 0.0
С 5 10 км {ливн. дождь} 10/10 600 м
[Cb calv]
+9.7 +2.1 59 +7 +7 тепло 1003.8 976.3
С 7 10 км {ливн. дождь} 10/6 600 м
[Cb calv Ac und]
+10.3 +2.2 57 +7 +7 по сезону 1003.2 975.8
СЗ 7 10 км слаб. ливневой дождь 10/10 600 м
[Cb calv]
+7.5 +4.3 80 +3 +3 по сезону 1004.1 976.4
З 5 10 км в посл. час ливневой дождь 10/8 300 м
[Cb calv Ac und]
+5.3 +4.4 94 +1 +1 по сезону 1005.1 977.2 +10.7 3
З 7 10 км 10/6 300 м
[Cb calv Ac und]
+4.9 +3.7 92 -1 -1 прохладно 1004.9 976.9
З 7 10 км 10/5 300 м
[Cb calv Ac und]
+4.8 +3.0 88 -1 -1 по сезону 1005.1 977.1
З 7 10 км 10/10 300 м
[Cb calv]
+4.0 +1.9 86 -2 -2 по сезону 1006.1 978.0
З 9 10 км {ливн. дождь} 8/6 300 м
[Cb calv Ac trans]
+5.2 +2.4 82 -1 -1 по сезону 1006.9 978.9 +3.7 0.0
З 8 10 км 9/8 600 м
[Cb calv Ac trans]
+5.1 +0.7 73 -1 -0 прохладно 1008.5 980.4
З 7 10 км 9/8 600 м
[Cb calv Ac trans]
+8.4 -1.4 50 +5 +5 по сезону 1008.5 980.7
З 8 10 км {ливн. дождь} 5/3 1000 м
[Cb calv Ac trans]
+9.1 -1.3 48 +5 +6 по сезону 1008.4 980.7
З 2 10 км в посл. час ливневой дождь 10/10 300 м
[Cb calv]
+4.2 +2.1 86 +1 +1 по сезону 1010.3 982.1 +9.5 0.8
Ю 3 10 км 5/0
[Ci fib]
+2.9 +1.3 89 -1 -1 по сезону 1010.8 982.4
Ю 4 10 км 4/0
[Ci fib]
+2.4 -0.4 82 -2 -2 прохладно 1010.8 982.4
Ю 3 10 км 4/0
[Ac trans Ci fib]
+1.5 -0.9 84 -3 -3 холодно 1011.3 982.8
Ю 4 10 км 1/0
[Ci fib]
+7.3 +0.5 62 +4 +7 по сезону 1011.9 983.9 +1.5
Ю 7 10 км 3/0
[Ac trans]
+12.0 -1.2 40 +9 +12 по сезону 1012.3 984.8
ЮВ 3 10 км 4/4 1000 м
[Cu hum]
+13.3 -2.2 34 +12 +18 по сезону 1012.0 984.6
ЮВ 4 10 км 3/3 1000 м
[Cu hum]
+13.9 -2.5 32 +13 +14 тепло 1011.9 984.6
В 1 10 км 3/0
[Ci fib]
+10.6 -1.1 44 +11 +11 тепло 1013.1 985.4 +14.9
В 3 10 км 3/0
[Ci fib]
+5.6 +0.8 71 +3 +3 по сезону 1013.9 985.7
В 2 10 км 6/0
[Ci fib]
+3.6 +1.2 84 +1 +1 по сезону 1013.2 984.8
С 3 10 км 9/0
[Ac trans Ci fib]
+3.0 +1.8 92 -1 -1 холодно 1012.5 984.1
С 4 10 км 9/1 600 м
[Sc Ac trans Ci fib]
+6.2 +3.7 84 +2 +4 прохладно 1011.0 983.0 +2.8
Местоположение метеостанции Ровно (Ровенская область, Украина): широта 50.58 долгота 26.13 высота над уровнем моря 231 м.
В архиве по умолчанию представлена погода в Ровно за последнюю неделю. Архивные данные за месяц целиком и за предыдущие месяцы, начиная с января 2011 года, Вы можете получить, выбрав интересующий диапазон дат из раскрывающегося списка и нажав кнопку "Найти!".
*Определитесь, кто Вы:
Внимание! Время в таблицах - всемирное. Для получения местного времени необходимо прибавить поправку, которая равна 2 ч.
Некоторые строки с данными для отдельных станций могут быть выделены курсивом. Это означает, что фактические данные отсутствуют по различным причинам, а приведенные значения являются расчетными модельными данными для данного пункта наблюдений.
Смотрите также архив погоды в соседних городах и на ближайших метеорологических станциях:
Партнеры нашего сайта:      
Пояснения к столбцам:
  • Ветер - указаны скорость ветра в м/с - средняя за 10 мин, порывы в срок и между сроками (в фигурных скобках) и направление, откуда дует ветер: С - северный,
  • СВ - северо-восточный, В - восточный, ЮВ - юго-восточный, Ю - южный, ЮЗ - юго-западный, З - западный, СЗ - северо-западный.
  • Видимость - горизонтальная дальность видимости в метрах или километрах. При видимости от 1 до 10 км при отсутствии осадков обычно наблюдается дымка, при ухудшении видимости до 1 км и менее - туман. В сухую погоду видимость может ухудшаться дымом, пылью или мглою.
  • Явления - указаны атмосферные явления, наблюдавшиеся в срок или в последний час перед сроком; фигурными скобками обозначены явления, наблюдавшиеся между сроками (за 1-3 часа до срока); квадратными скобками обозначены град или гололедные отложения с указанием их диаметра в мм.
  • Облачность - указаны через наклонную черту общая и нижняя облачность в баллах и высота нижней границы облаков в метрах; квадратными скобками обозначены формы облаков: Ci - перистые, Cs - перисто-слоистые, Cc - перисто-кучевые, Ac - высококучевые, As - высокослоистые, Sc - слоисто-кучевые, Ns - слоисто-дождевые, Cu - кучевые, Cb - кучево-дождевые. Подробнее классификацию облаков см. в Атласе облаков (PDF).
  • T - Температура воздуха - температура, измеренная на высоте 2 м над землей.
  • Td - Температура точки росы - температура, при понижении до которой содержащийся в воздухе водяной пар достигнет насыщения.
  • f - Относительная влажность воздуха - влажноcть воздуха, измеренная на высоте 2 м над землей.
  • Te - Эффективная температура - температура, которую ощущает одетый по сезону человек в тени. Характеристика душности погоды. При расчете учитывается влияние влажности воздуха и скорости ветра на теплоощущения человека.
  • Tes - Эффективная температура на солнце - температура, которую ощущает человек, с поправкой на солнечный нагрев. Характеристика знойности погоды. Зависит от высоты солнца над горизонтом, облачности и скорости ветра. Ночью, в пасмурную погоду, а также при ветре 12 м/с и более поправка равна нулю.
  • P - Атмосферное давление - приведенное к уровню моря атмосферное давление.
  • Po - Атмосферное давление - измеренное на уровне метеостанции атмосферное давление.
  • Tmin - Минимальная температура - минимум температуры воздуха на высоте 2 м над землей.
  • Tmax - Максимальная температура - максимум температуры воздуха на высоте 2 м над землей.
  • R - Количество осадков - Количество выпавших осадков за период времени, мм. При наведении курсора мыши на число - период времени, за который выпало указанное количество осадков.
  • R24 - Количество осадков - Количество выпавших осадков за 24 часа, мм.
  • S - Снежный покров - Высота снежного покрова, см. При наведении курсора мыши на число - состояние снежного покрова и степень покрытия местности в баллах.